Regional Weather Roundup
Issued by NWS

Home | Current Version | Previous Version | Graphics & Text | Print | Product List | Glossary On
Versions: 1 2 3 4 5 6 7 8 9 10 11 12 13 14 15 16 17 18 19 20 21 22 23 24 25 26 27 28 29 30 31 32 33 34 35 36 37 38 39 40 41 42 43 44 45 46 47 48 49 50
000
ASUS43 KDMX 250601
RWRIA

WEATHER ROUNDUP FOR IOWA
NATIONAL WEATHER SERVICE DES MOINES IA
100 AM CDT TUE APR 25 2017

NOTE: "FAIR" INDICATES FEW OR NO CLOUDS BELOW 12,000 FEET WITH NO
SIGNIFICANT WEATHER AND/OR OBSTRUCTIONS TO VISIBILITY.

* - THESE STATIONS ARE NOT NWS STATIONS...THUS NOT UNDER NWS
QUALITY CONTROL.  THEY ALSO DO NOT REPORT WEATHER SUCH
AS PRECIPITATION OR FOG.

IAZ001>003-012>014-020>022-031>034-043>046-250700-
   NORTHWEST IOWA

CITY           SKY/WX    TMP DP  RH WIND       PRES   REMARKS
CARROLL *      CLOUDY    63  43  48 S12       29.53S
DENISON *      MOCLDY    61  45  55 SW6       29.54R
LE MARS *      CLOUDY    50  43  76 NW6       29.56R
ORANGE CITY *  CLOUDY    50  45  81 NW8       29.54S
SHELDON *      PTCLDY    50  43  76 NW9       29.52S
SIOUX CITY     CLEAR     49  42  77 N9        29.55S
6HR MIN TEMP:  49; 6HR MAX TEMP:  72;

SPENCER        MOCLDY    54  43  66 W10       29.51S
6HR MIN TEMP:  54; 6HR MAX TEMP:  68;

STORM LAKE *   PTCLDY    55  43  62 W7        29.52F
$$

IAZ055>058-069>071-079>083-090>094-250700-
   SOUTHWEST IOWA

CITY           SKY/WX    TMP DP  RH WIND       PRES   REMARKS
ATLANTIC *     MOCLDY    63  43  48 S13       29.53F
AUDUBON *      CLOUDY    64  43  45 S10G17    29.54F
CLARINDA *     MOCLDY    61  43  51 S6        29.57F
COUNCIL BLFS * CLEAR     57  45  62 SE9       29.52F
CRESTON *      CLOUDY    63  39  42 S13       29.58F
HARLAN  *      CLOUDY    63  43  48 S13       29.55F
LAMONI         CLOUDY    60  38  43 S8        29.59F
6HR MIN TEMP:  60; 6HR MAX TEMP:  72;

RED OAK *      PTCLDY    61  43  51 S12G17    29.53F
SHENANDOAH *   PTCLDY    59  45  58 SE6       29.53F
$$

IAZ047>049-059>061-072>074-084-250700-
   CENTRAL IOWA

CITY           SKY/WX    TMP DP  RH WIND       PRES   REMARKS
AMES           CLOUDY    59  38  45 SE8       29.56F
6HR MIN TEMP:  58; 6HR MAX TEMP:  71;

ANKENY *       CLOUDY    61  36  39 S6        29.58S
BOONE *        CLOUDY    61  36  39 S8        29.55F
CHARITON *     CLOUDY    57  37  47 SE7       29.59S
DES MOINES     CLOUDY    63  37  38 S8        29.57F
6HR MIN TEMP:  63; 6HR MAX TEMP:  73;

GRINNELL*      CLOUDY    59  32  36 SE12      29.61F
KNOXVILLE *    CLOUDY    59  36  41 SE8       29.57F
MARSHALLTOWN   CLOUDY    60  34  37 SE12      29.58S
6HR MIN TEMP:  58; 6HR MAX TEMP:  70; 6HR PCP: TRACE;

NEWTON *       CLOUDY    59  34  38 SE12      29.58S
PELLA *        MOCLDY    60  32  34 SE7       29.60F
PERRY *        CLOUDY    60  36  41 S9        29.55F
$$

IAZ004>006-015-016-023>025-035-036-250700-
   NORTH CENTRAL IOWA

CITY           SKY/WX    TMP DP  RH WIND       PRES   REMARKS
ALGONA *       CLOUDY    61  37  41 SE12      29.52F
CLARION *      CLOUDY    61  34  36 S13       29.54F
ESTHERVILLE    CLOUDY    58  41  53 S10       29.50F
6HR MIN TEMP:  58; 6HR MAX TEMP:  67;

FORT DODGE *   CLOUDY    64  36  34 S9        29.55S
MASON CITY     CLOUDY    58  34  40 S13       29.57F
6HR MIN TEMP:  57; 6HR MAX TEMP:  67;

FOREST CITY *  CLOUDY    55  34  44 S9        29.55S
WEBSTER CITY * CLOUDY    61  36  39 SE12      29.53F
IOWA FALLS *   CLOUDY    58  37  43 SE9       29.58F
$$

IAZ007>011-017>019-026>030-037>042-050>054-066-250700-
   NORTHEAST IOWA

CITY           SKY/WX    TMP DP  RH WIND       PRES   REMARKS
CEDAR RAPIDS   CLEAR     58  32  37 S9        29.62F
6HR MIN TEMP:  56; 6HR MAX TEMP:  71;

CHARLES CITY * CLOUDY    59  30  33 SE12      29.59F
CLINTON *      CLEAR     54  35  48 SE12      29.68F
DECORAH *      CLEAR     57  32  38 SE10      29.61F
DUBUQUE        CLEAR     58  31  35 SE14      29.67F
6HR MIN TEMP:  56; 6HR MAX TEMP:  69;

MONTICELLO *   CLEAR     57  32  38 SE10      29.64F
WATERLOO       PTCLDY    61  30  31 S13       29.59F
6HR MIN TEMP:  61; 6HR MAX TEMP:  70;

$$

IAZ064-065-067-068-078-250700-
   EAST CENTRAL IOWA

CITY           SKY/WX    TMP DP  RH WIND       PRES   REMARKS
DAVENPORT      CLEAR     57  29  34 SE12      29.67F
6HR MIN TEMP:  57; 6HR MAX TEMP:  73;

IOWA CITY      CLEAR     55  36  48 CALM      29.65F
6HR MIN TEMP:  54; 6HR MAX TEMP:  73;

MT. PLEASANT * CLEAR     57  33  40 SE12      29.65F
MUSCATINE *    CLEAR     50  34  53 CALM      29.66S
QUAD CITIES    CLEAR     49  35  58 SE7       29.67F
6HR MIN TEMP:  49; 6HR MAX TEMP:  72;

$$

IAZ062-063-075>077-085>089-095>099-250700-
   SOUTHEAST IOWA

CITY           SKY/WX    TMP DP  RH WIND       PRES   REMARKS
BURLINGTON     CLEAR     61  35  37 S10       29.66F
6HR MIN TEMP:  57; 6HR MAX TEMP:  70;

FAIRFIELD *    PTCLDY    57  32  38 SE9       29.63S
FORT MADISON * CLEAR     61  34  36 S6        29.67S
KEOKUK *       CLEAR     59  34  38 SE7       29.65S
OSKALOOSA *      N/A     54  33  44 SE12      29.61F
CENTERVILLE *  MOCLDY    50  37  62 CALM      29.63S
OTTUMWA        PTCLDY    60  32  34 S15       29.61F
6HR MIN TEMP:  60; 6HR MAX TEMP:  72;

WASHINGTON *   CLEAR     57  32  38 S10       29.65S
$$

ABBREVIATIONS USED IN REMARKS
   TC - TEMPERATURES IN CELSIUS
  WCI - WIND CHILL INDEX
   HX - HEAT INDEX
  VSB - VISIBILITY
$$





USA.gov is the U.S. government's official web portal to all federal, state and local government web resources and services.